User: anonymous   Login
Location: SAPM � Hemmingford
(45.0500°N, 73.5833°W)
Time: 02:48:37
(UTC-04:00)
Language:

Cosmos 1674 Rocket - Orbit

View from above orbital plane
View from above orbital plane
View from above satellite
View from above satellite

Ground track
Ground track

The orbit data is extracted from the following two-line orbital elements,

1 15945U 85069B   16147.09371896  .00000124  00000-0  11939-4 0  9998
2 15945  82.5261 135.5184 0021212 117.4760 242.8615 14.83858048663621
Epoch (UTC): 26 May 2016 02:14:57
Eccentricity: 0.0021212
inclination: 82.5261°
perigee height: 602 km
apogee height: 632 km
right ascension of ascending node: 135.5184°
argument of perigee: 117.4760°
revolutions per day: 14.83858048
mean anomaly at epoch: 242.8615°
orbit number at epoch: 66362

The dashed part of the orbit path shows where the satellite is in the earth's shadow,  

DLR